User: anonymous   Login
Location: The Saddle
(36.8333°N, 80.3417°W)
Time: 20:33:51
(UTC-04:00)
Language:

BUGSAT 1 - Orbit

View from above orbital plane
View from above orbital plane
View from above satellite
View from above satellite

Ground track
Ground track

The orbit data is extracted from the following two-line orbital elements,

1 40014U 14033E   24104.58357513  .00006021  00000-0  44694-3 0  9997
2 40014  98.1333 142.9425 0035768 351.7638   8.2994 15.02947550535932
Epoch (UTC): 13 April 2024 14:00:20
Eccentricity: 0.0035768
inclination: 98.1333°
perigee height: 533 km
apogee height: 582 km
right ascension of ascending node: 142.9425°
argument of perigee: 351.7638°
revolutions per day: 15.02947550
mean anomaly at epoch: 8.2994°
orbit number at epoch: 53593

The dashed part of the orbit path shows where the satellite is in the earth's shadow,  

DLR